Location: Krakow
(50.0830°N, 19.9170°E)
Time: 10:06:08
(UTC+01:00)

Transit 2A - Pass Details

Date: 13 February 2023
Orbit: 591 x 964 km, 66.7° (Epoch: 21 March)

Event Time Altitude Azimuth Distance (km) Brightness Sun altitude
Rises 16:48:42 0° 267° (W) 3,169 11.0 0.0°
Reaches altitude 10° 16:51:27 10° 282° (WNW) 2,315 9.6 -0.4°
Maximum altitude 16:55:40 23° 334° (NNW) 1,683 7.9 -1.0°
Drops below altitude 10° 17:00:14 10° 26° (NNE) 2,522 8.3 -1.7°
Sets 17:03:23 0° 40° (NE) 3,524 8.9 -2.2°
